Regional Weather Roundup
Issued by NWS

Home | Current Version | Previous Version | Graphics & Text | Print | Product List | Glossary On
Versions: 1 2 3 4 5 6 7 8 9 10 11 12 13 14 15 16 17 18 19 20 21 22 23 24 25 26 27 28 29 30 31 32 33 34 35 36 37 38 39 40 41 42 43 44 45 46 47 48 49 50
089
ASUS45 KBOU 190510
RWRCO

WEATHER ROUNDUP FOR COLORADO
NATIONAL WEATHER SERVICE DENVER/BOULDER CO
1000 PM MST SAT NOV 18 2017

NOTE: "FAIR" INDICATES FEW OR NO CLOUDS BELOW 12000 FEET WITH NO
SIGNIFICANT WEATHER AND/OR OBSTRUCTIONS TO VISIBILITY.

COZ001>005-013-030-031-190600-
...NORTHWEST COLORADO...

CITY           SKY/WX    TMP DP  RH WIND       PRES   REMARKS
CRAIG          FAIR      13   8  81 CALM      30.38S
HAYDEN         FAIR      20  12  71 E8        30.39S WCI  10
MEEKER         FAIR      20  13  74 MISG      30.39S
RABBIT EARS PA FAIR      12  10  92 W6        30.32R WCI   3
STEAMBOAT SPGS FAIR      13  11  89 CALM      30.38S
WALDEN         FAIR       9   1  72 SE9       30.33S WCI  -5
$$

COZ006>008-011-190600-
...WEST CENTRAL VALLEYS...

CITY           SKY/WX    TMP DP  RH WIND       PRES   REMARKS
GRAND JUNCTION FAIR      27  18  69 E5        30.40R WCI  22
MONTROSE       FAIR      25  20  81 SE9       30.43R WCI  15
EAGLE          FAIR      20  15  81 SE3       30.43R
RIFLE          FAIR      23  19  85 SW3       30.43R
DELTA          FAIR      27  18  68 E5        30.42S WCI  22
NUCLA          FAIR      27  14  59 E8        30.43R WCI  18
$$

COZ017>023-064>068-190600-
...SOUTHWEST COLORADO...

CITY           SKY/WX    TMP DP  RH WIND       PRES   REMARKS
DURANGO        FAIR      22  14  71 CALM      30.36F
CORTEZ         FAIR      18  10  71 NE5       30.39R WCI  11
PAGOSA SPRINGS FAIR      24  17  74 CALM      30.38S
TELLURIDE      FAIR      23  11  59 SE8       30.40R WCI  14
WOLF CREEK PAS FAIR      21   0  39 SW8       30.45R WCI  12
$$

COZ009-010-012-014-032>034-037-058>063-190600-
...CENTRAL COLORADO...

CITY           SKY/WX    TMP DP  RH WIND       PRES   REMARKS
ASPEN          FAIR      13   8  81 SW3       30.36F
BUENA VISTA    FAIR      25  10  53 CALM      30.33R
COPPER MTN     FAIR      21   0  39 MISG      30.33S
BERTHOUD PASS  FAIR      10   1  67 NW44      30.24S HAZE    WCI -15
COTTONWOOD PAS FAIR      32   3  29 E3        30.31F
GUNNISON       FAIR      15  11  83 E3        30.43R
KREMMLING      FAIR      19  14  79 E3        30.41R
LEADVILLE      FAIR       7   0  73 NE5       30.32F WCI  -2
MONARCH PASS   FAIR      14   3  62 W32       30.43S WCI  -7
SALIDA         FAIR      32  11  41 NW10      30.39S WCI  24
SUNLIGHT       FAIR      18   1  49 SW9       30.40S WCI   6
WILKERSON PASS FAIR      21  -6  30 W6        30.35R WCI  14
$$

COZ069>075-190600-
...SAN LUIS VALLEY/SANGRE DE CRISTO MOUNTAINS...

CITY           SKY/WX    TMP DP  RH WIND       PRES   REMARKS
ALAMOSA        FAIR      14   8  77 CALM      30.36R
DEL NORTE      FAIR      22  11  60 W10       30.37R WCI  12
LA VETA PASS   FAIR      23   3  42 SW30G39     N/A  WCI   5
SAGUACHE       FAIR      23   9  54 NW15      30.37R WCI  10
$$

COZ035-036-038>040-190600-
...NORTHERN COLORADO FRONT RANGE...

CITY           SKY/WX    TMP DP  RH WIND       PRES   REMARKS
DENVER INTL AP FAIR      29  16  58 SW7       30.21S WCI  22
DMNS CITY PARK   N/A     33  22  62 E8        30.21S WCI  26
AURORA         PTCLDY    26  18  74 SE9       30.22S WCI  16
FRONT RANGE AP FAIR      31  20  64 SE6       30.22S WCI  25
ERIE MUNI ARPT FAIR      26  18  73 CALM      30.27F
BOULDER MUN AP FAIR      32  16  51 CALM      30.20F
CENTENNIAL     FAIR      28  18  66 VRB6      30.21S WCI  22
BROOMFIELD     FAIR      36  12  38 CALM      30.21F
FORT COLLINS   FAIR      30  18  60 NE3       30.22F
LONGMONT       FAIR      32  19  59 W3        30.23F
$$

COZ041-046-047-076>085-087-088-190600-
...PIKES PEAK/PALMER DIVIDE AND SOUTHERN FOOTHILLS...

CITY           SKY/WX    TMP DP  RH WIND       PRES   REMARKS
COLO. SPRINGS  FAIR      25  16  68 N6        30.27S WCI  18
A. F. ACADEMY  FAIR      20  15  79 N8        30.25S WCI  10
SCHRIEVER AFB  FAIR      24  16  69 CALM      30.27R
CHEYENNE MTN   FAIR      30  19  62 S3        30.19S
ELLICOTT       NOT AVBL
FALCON         FAIR      22  15  72 W7        30.26S WCI  14
FORT CARSON    FAIR      25  17  72 NW6       30.25R WCI  18
LIMON          FAIR      19  13  77 SE6       30.25S WCI  11
MONUMENT HILL  FAIR      27  14  59 SW9       30.25S WCI  17
CANON CITY     FAIR      30  19  64 W9        30.25S WCI  22
WALSENBURG     FAIR      39  10  30 SW13G21   30.24S
TRINIDAD       FAIR      32  22  66 SW9       30.25F WCI  24
$$

COZ042>045-048>051-090-091-190600-
...NORTHEAST COLORADO...

CITY           SKY/WX    TMP DP  RH WIND       PRES   REMARKS
GREELEY ARPT   FAIR      21  16  81 N6        30.23S WCI  13
AKRON          FAIR      27  14  58 SE8       30.24S WCI  19
BURLINGTON     FAIR      21  12  68 W5        30.28R WCI  15
WRAY           NOT AVBL
YUMA           FAIR      21  16  79 W3        30.25F
STERLING       FAIR      23  16  74 W3        30.24S
HOLYOKE        FAIR      28  18  64 CALM      30.25S
FORT MORGAN    FAIR      24  13  62 E7        30.24S WCI  16
$$

COZ086-089-092>099-190600-
...SOUTHEAST COLORADO...

CITY           SKY/WX    TMP DP  RH WIND       PRES   REMARKS
PUEBLO         FAIR      28  22  78 N9        30.25R WCI  19
LA JUNTA       FAIR      28  16  60 N6        30.26S WCI  22
LAMAR          FAIR      20   9  62 NE6       30.27S WCI  12
SPRINGFIELD      N/A     24  16  71 S5        30.29R WCI  18
$$




USA.gov is the U.S. government's official web portal to all federal, state and local government web resources and services.